CZ-4C DEB

Satellite information

Favourite Embed

Satellite Type and Status

DEBRISIN ORBIT

Key statistics

Satellite CZ-4C DEB at a glance.

Uptime

4434

Days in orbit

Revolutions

≈ 14.9

Per day

Orbit

SSO

Sun Synchronous Orbit

Inclination

98.0

Latest

Satellite identification and parameters

Extended collection of information and parameters for CZ-4C DEB.

Object identification

Identified? True

Debris? True

Object name: CZ-4C DEB

International designator: 2013-037E

Object number (NORAD): 39212

Object ID (CCSDS): 39212

Country: PEOPLES REPUBLIC OF CHINA (PRC)

Current information (Y/N): Y

RCS size: LARGE

Orbital parameters

Period: 96.801 minutes

Inclination: 97.9551 deg

SMA: 6983.622 km

Apoapsis: 608.488 km

Periapsis: 602.487 km

RAAN: 260.7553 deg

Eccentricy: 0.00042968

Argument of periapsis: 166.8999 deg

Mean anomaly: 193.2329 deg

Mean motion: 14.87584499 rev/day

Mean motion (dot): 0.00005403 rev/day2

B* drag term: 0.00060053565 1/REarth

Two-line elements (TLE)

Creation date: Sept. 8, 2025, 3:16 a.m.

Reference frame: TEME

Reference center: EARTH

Epoch: Sept. 7, 2025, 10:12 p.m. UTC

TLE line 0: 0 CZ-4C DEB

TLE line 1: 1 39212U 13037E 25250.92550551 .00005403 00000-0 60054-3 0 9997

TLE line 2: 2 39212 97.9551 260.7553 0004297 166.8999 193.2329 14.87584499652824

Live tracking on map

Real-time ground track for satellite CZ-4C DEB.

In-orbit conjunctions

A list of the most updated potential collisions computed for object CZ-4C DEB.

Target Orbit TCA Probability of collision Miss distance Type
CZ-2C R/B SSO 2024-09-18 12:26:08 0.0002027045 585.0 (m) ROCKET BODY

Associated space launch

CZ-4C DEB was lifted into orbit during the mission ‘Long March 4C | Shijian 15, Shiyan 7 & ChuangXin 3’, on board a Long March 4C space rocket.

The launch took place on July 19, 2013, 11:37 p.m. from Launch Complex 9.

For more information about the launch, click the button.

Launch to space Long March 4C | Shijian 15, Shiyan 7 & ChuangXin 3
Long March 4C | Shijian 15, Shiyan 7 & ChuangXin 3

Agency: N/A

Status: Launch Successful

Launch date: July 19, 2013, 11:37 p.m. UTC

Rocket: Long March 4C

Launch pad: Launch Complex 9

Location: Taiyuan Satellite Launch Center, People's Republic of China

...

Latest news about this satellite

There are no fresh news available about this satellite. Check back as we update our databases every day.


Newsletter sign-up

Weekly statistics, charts and insights to help you stay on top of the space industry.